Location: Alma
(38.7220°N, 88.9090°W)
Time: 16:37:22
(UTC-06:00)

A-11 Canister half - Visible Passes

Search period start: 13 November 2019 00:00
Search period end: 23 November 2019 00:00
Orbit: 1527 x 1682 km, 47.3° (Epoch: 12 November)

Date Brightness Start Highest point End Pass type
(mag) Time Alt. Az. Time Alt. Az. Time Alt. Az.
13 Nov 8.9 18:51:59 10° WNW 19:01:34 89° SW 19:05:16 43° ESE visible
13 Nov 10.3 20:57:56 10° WNW 21:03:35 28° WSW 21:03:35 28° WSW visible
14 Nov 8.9 18:30:19 10° WNW 18:39:56 88° NNE 18:45:19 30° ESE visible
14 Nov 10.1 20:36:11 10° WNW 20:43:40 32° SW 20:43:40 32° SW visible
15 Nov 8.9 18:08:40 10° WNW 18:18:18 85° NNE 18:25:31 19° ESE visible
15 Nov 10.0 20:14:27 10° WNW 20:22:36 34° SW 20:23:53 33° SW visible
16 Nov 9.0 17:46:59 10° WNW 17:56:40 83° NNE 18:05:55 11° ESE visible
16 Nov 10.0 19:52:43 10° WNW 20:01:02 36° SW 20:04:17 29° SSW visible
17 Nov 9.0 17:25:19 10° WNW 17:35:01 80° NNE 17:44:25 10° ESE visible
17 Nov 10.0 19:31:00 10° WNW 19:39:28 38° SW 19:44:55 21° S visible
18 Nov 9.0 17:03:39 10° WNW 17:13:22 78° NNE 17:22:47 10° ESE visible
18 Nov 9.9 19:09:16 10° WNW 19:17:54 41° SW 19:25:52 12° SSE visible
19 Nov 9.9 18:47:33 10° WNW 18:56:19 43° SW 19:04:54 10° SSE visible
20 Nov 9.9 18:25:51 10° WNW 18:34:45 45° SW 18:43:26 10° SSE visible
21 Nov 9.9 18:04:09 10° WNW 18:13:10 48° SW 18:21:57 10° SSE visible
22 Nov 9.9 17:42:27 10° WNW 17:51:35 50° SW 18:00:28 10° SSE visible
22 Nov 11.4 19:52:59 10° WSW 19:54:48 11° WSW 19:56:38 10° SW visible
